Time,TemperatureF,DewpointF,PressureIn,WindDirection,WindDirectionDegrees,WindSpeedMPH,WindSpeedGustMPH,Humidity,HourlyPrecipIn,Conditions,Clouds,dailyrainin,SoftwareType,DateUTC
2013-02-25 00:03:00,34.1,21.0,30.12,WNW,292,8.0,12.0,58,0.00,,,0.00,weatherlink.com 1.10,2013-02-25 05:03:00,
2013-02-25 00:18:00,33.9,20.0,30.12,NW,312,3.0,11.0,57,0.00,,,0.00,weatherlink.com 1.10,2013-02-25 05:18:00,
2013-02-25 00:33:00,32.6,19.0,30.12,NW,304,6.0,10.0,58,0.00,,,0.00,weatherlink.com 1.10,2013-02-25 05:33:00,
2013-02-25 00:48:00,32.6,18.0,30.12,WNW,289,6.0,13.0,55,0.00,,,0.00,weatherlink.com 1.10,2013-02-25 05:48:00,
2013-02-25 01:03:00,32.6,17.0,30.12,NW,313,2.0,7.0,54,0.00,,,0.00,weatherlink.com 1.10,2013-02-25 06:03:00,
2013-02-25 01:18:00,31.7,17.0,30.13,WNW,302,1.0,4.0,55,0.00,,,0.00,weatherlink.com 1.10,2013-02-25 06:18:00,
2013-02-25 01:34:00,31.0,17.0,30.13,WNW,302,0.0,1.0,56,0.00,,,0.00,weatherlink.com 1.10,2013-02-25 06:34:00,
2013-02-25 01:49:00,30.6,17.0,30.12,WNW,302,0.0,0.0,57,0.00,,,0.00,weatherlink.com 1.10,2013-02-25 06:49:00,
2013-02-25 02:04:00,28.7,17.0,30.12,SSW,213,1.0,3.0,62,0.00,,,0.00,weatherlink.com 1.10,2013-02-25 07:04:00,
2013-02-25 02:19:00,27.5,17.0,30.12,East,79,0.0,3.0,65,0.00,,,0.00,weatherlink.com 1.10,2013-02-25 07:19:00,
2013-02-25 02:34:00,27.3,17.0,30.12,East,79,0.0,2.0,66,0.00,,,0.00,weatherlink.com 1.10,2013-02-25 07:34:00,
2013-02-25 02:49:00,27.8,17.0,30.12,ESE,111,0.0,3.0,64,0.00,,,0.00,weatherlink.com 1.10,2013-02-25 07:49:00,
2013-02-25 03:04:00,27.5,17.0,30.12,SE,134,2.0,4.0,65,0.00,,,0.00,weatherlink.com 1.10,2013-02-25 08:04:00,
2013-02-25 03:19:00,26.0,17.0,30.12,SE,134,0.0,1.0,69,0.00,,,0.00,weatherlink.com 1.10,2013-02-25 08:19:00,
2013-02-25 03:34:00,26.3,17.0,30.12,SE,134,0.0,1.0,67,0.00,,,0.00,weatherlink.com 1.10,2013-02-25 08:34:00,
2013-02-25 03:49:00,26.8,17.0,30.12,SE,134,0.0,1.0,67,0.00,,,0.00,weatherlink.com 1.10,2013-02-25 08:49:00,
2013-02-25 04:04:00,26.0,18.0,30.12,SE,134,1.0,3.0,72,0.00,,,0.00,weatherlink.com 1.10,2013-02-25 09:04:00,
2013-02-25 04:19:00,23.6,17.0,30.12,WNW,302,1.0,3.0,77,0.00,,,0.00,weatherlink.com 1.10,2013-02-25 09:19:00,
2013-02-25 04:34:00,24.3,17.0,30.14,South,169,2.0,4.0,74,0.00,,,0.00,weatherlink.com 1.10,2013-02-25 09:34:00,
2013-02-25 04:49:00,25.2,17.0,30.15,South,179,0.0,3.0,72,0.00,,,0.00,weatherlink.com 1.10,2013-02-25 09:49:00,
2013-02-25 05:04:00,25.5,17.0,30.16,South,179,2.0,4.0,71,0.00,,,0.00,weatherlink.com 1.10,2013-02-25 10:04:00,
2013-02-25 05:19:00,26.4,17.0,30.16,South,179,0.0,3.0,69,0.00,,,0.00,weatherlink.com 1.10,2013-02-25 10:19:00,
2013-02-25 05:34:00,24.3,17.0,30.15,South,180,0.0,3.0,73,0.00,,,0.00,weatherlink.com 1.10,2013-02-25 10:34:00,
2013-02-25 05:49:00,23.1,17.0,30.17,South,180,0.0,1.0,78,0.00,,,0.00,weatherlink.com 1.10,2013-02-25 10:49:00,
2013-02-25 06:04:00,23.9,17.0,30.17,South,180,0.0,2.0,75,0.00,,,0.00,weatherlink.com 1.10,2013-02-25 11:04:00,
2013-02-25 06:19:00,23.9,17.0,30.17,South,180,0.0,1.0,74,0.00,,,0.00,weatherlink.com 1.10,2013-02-25 11:19:00,
2013-02-25 06:34:00,23.6,17.0,30.17,South,180,1.0,2.0,75,0.00,,,0.00,weatherlink.com 1.10,2013-02-25 11:34:00,
2013-02-25 06:49:00,23.9,17.0,30.17,South,180,0.0,1.0,76,0.00,,,0.00,weatherlink.com 1.10,2013-02-25 11:49:00,
2013-02-25 07:04:00,23.6,17.0,30.18,West,275,0.0,3.0,77,0.00,,,0.00,weatherlink.com 1.10,2013-02-25 12:04:00,
2013-02-25 07:19:00,23.5,18.0,30.17,West,275,1.0,1.0,78,0.00,,,0.00,weatherlink.com 1.10,2013-02-25 12:19:00,
2013-02-25 07:34:00,23.8,18.0,30.18,West,275,0.0,2.0,79,0.00,,,0.00,weatherlink.com 1.10,2013-02-25 12:34:00,
2013-02-25 07:49:00,24.5,19.0,30.19,West,275,0.0,1.0,80,0.00,,,0.00,weatherlink.com 1.10,2013-02-25 12:49:00,
2013-02-25 08:04:00,25.4,19.0,30.19,West,275,1.0,1.0,78,0.00,,,0.00,weatherlink.com 1.10,2013-02-25 13:04:00,
2013-02-25 08:19:00,26.6,22.0,30.18,West,275,0.0,2.0,83,0.00,,,0.00,weatherlink.com 1.10,2013-02-25 13:19:00,
2013-02-25 08:34:00,28.2,22.0,30.19,NW,325,1.0,2.0,76,0.00,,,0.00,weatherlink.com 1.10,2013-02-25 13:34:00,
2013-02-25 08:49:00,29.9,22.0,30.20,NW,325,0.0,1.0,73,0.00,,,0.00,weatherlink.com 1.10,2013-02-25 13:49:00,
2013-02-25 09:04:00,32.3,23.0,30.21,East,80,2.0,3.0,68,0.00,,,0.00,weatherlink.com 1.10,2013-02-25 14:04:00,
2013-02-25 09:20:00,33.9,23.0,30.21,ESE,104,0.0,3.0,65,0.00,,,0.00,weatherlink.com 1.10,2013-02-25 14:20:00,
2013-02-25 09:35:00,35.4,23.0,30.22,ESE,111,2.0,4.0,60,0.00,,,0.00,weatherlink.com 1.10,2013-02-25 14:35:00,
2013-02-25 09:50:00,36.4,22.0,30.21,East,96,1.0,5.0,57,0.00,,,0.00,weatherlink.com 1.10,2013-02-25 14:50:00,
2013-02-25 10:05:00,36.7,22.0,30.21,East,87,5.0,6.0,56,0.00,,,0.00,weatherlink.com 1.10,2013-02-25 15:05:00,
2013-02-25 10:20:00,37.7,22.0,30.21,East,92,0.0,6.0,53,0.00,,,0.00,weatherlink.com 1.10,2013-02-25 15:20:00,
2013-02-25 10:35:00,38.4,22.0,30.21,East,88,6.0,8.0,53,0.00,,,0.00,weatherlink.com 1.10,2013-02-25 15:35:00,
2013-02-25 10:50:00,39.1,22.0,30.21,North,355,2.0,9.0,50,0.00,,,0.00,weatherlink.com 1.10,2013-02-25 15:50:00,
2013-02-25 11:07:00,39.5,21.0,30.22,NE,43,4.0,10.0,48,0.00,,,0.00,weatherlink.com 1.10,2013-02-25 16:07:00,
2013-02-25 11:20:00,39.4,22.0,30.22,WNW,297,0.0,8.0,49,0.00,,,0.00,weatherlink.com 1.10,2013-02-25 16:20:00,
2013-02-25 11:35:00,40.8,22.0,30.22,NE,48,5.0,8.0,47,0.00,,,0.00,weatherlink.com 1.10,2013-02-25 16:35:00,
2013-02-25 11:51:00,41.0,22.0,30.21,East,93,7.0,8.0,48,0.00,,,0.00,weatherlink.com 1.10,2013-02-25 16:51:00,
2013-02-25 12:05:00,41.1,22.0,30.21,SSW,194,3.0,7.0,47,0.00,,,0.00,weatherlink.com 1.10,2013-02-25 17:05:00,
2013-02-25 12:21:00,40.7,21.0,30.20,ENE,58,2.0,7.0,46,0.00,,,0.00,weatherlink.com 1.10,2013-02-25 17:21:00,
2013-02-25 12:35:00,41.0,21.0,30.20,SE,130,1.0,8.0,45,0.00,,,0.00,weatherlink.com 1.10,2013-02-25 17:35:00,
2013-02-25 12:51:00,41.2,21.0,30.20,ESE,115,3.0,8.0,45,0.00,,,0.00,weatherlink.com 1.10,2013-02-25 17:51:00,
2013-02-25 13:07:00,41.4,21.0,30.19,East,98,3.0,5.0,45,0.00,,,0.00,weatherlink.com 1.10,2013-02-25 18:07:00,
2013-02-25 13:21:00,42.1,22.0,30.19,ENE,78,7.0,7.0,45,0.00,,,0.00,weatherlink.com 1.10,2013-02-25 18:21:00,
2013-02-25 13:36:00,42.1,21.0,30.17,WNW,298,0.0,4.0,43,0.00,,,0.00,weatherlink.com 1.10,2013-02-25 18:36:00,
2013-02-25 13:51:00,42.8,22.0,30.17,SSE,148,4.0,8.0,43,0.00,,,0.00,weatherlink.com 1.10,2013-02-25 18:51:00,
2013-02-25 14:06:00,43.3,23.0,30.16,ESE,107,1.0,6.0,44,0.00,,,0.00,weatherlink.com 1.10,2013-02-25 19:06:00,
2013-02-25 14:21:00,43.2,22.0,30.16,ESE,111,7.0,9.0,43,0.00,,,0.00,weatherlink.com 1.10,2013-02-25 19:21:00,
2013-02-25 14:37:00,42.9,22.0,30.16,South,187,0.0,5.0,43,0.00,,,0.00,weatherlink.com 1.10,2013-02-25 19:37:00,
2013-02-25 14:51:00,42.9,21.0,30.16,SE,138,7.0,9.0,41,0.00,,,0.00,weatherlink.com 1.10,2013-02-25 19:51:00,
2013-02-25 15:09:00,43.5,20.0,30.15,SSE,161,1.0,4.0,40,0.00,,,0.00,weatherlink.com 1.10,2013-02-25 20:09:00,
2013-02-25 15:21:00,43.6,22.0,30.15,NE,48,4.0,7.0,42,0.00,,,0.00,weatherlink.com 1.10,2013-02-25 20:21:00,
2013-02-25 15:36:00,43.3,21.0,30.16,NNE,29,1.0,3.0,42,0.00,,,0.00,weatherlink.com 1.10,2013-02-25 20:36:00,
2013-02-25 15:51:00,43.8,22.0,30.15,East,98,3.0,8.0,42,0.00,,,0.00,weatherlink.com 1.10,2013-02-25 20:51:00,
2013-02-25 16:07:00,43.9,22.0,30.16,ESE,103,4.0,8.0,42,0.00,,,0.00,weatherlink.com 1.10,2013-02-25 21:07:00,
2013-02-25 16:21:00,43.9,23.0,30.17,SE,128,6.0,9.0,43,0.00,,,0.00,weatherlink.com 1.10,2013-02-25 21:21:00,
2013-02-25 16:37:00,43.5,22.0,30.17,ESE,121,0.0,7.0,42,0.00,,,0.00,weatherlink.com 1.10,2013-02-25 21:37:00,
2013-02-25 16:51:00,43.5,22.0,30.16,ESE,103,2.0,6.0,42,0.00,,,0.00,weatherlink.com 1.10,2013-02-25 21:51:00,
2013-02-25 17:07:00,42.9,22.0,30.16,East,96,5.0,5.0,44,0.00,,,0.00,weatherlink.com 1.10,2013-02-25 22:07:00,
2013-02-25 17:23:00,42.0,22.0,30.17,ESE,102,2.0,5.0,45,0.00,,,0.00,weatherlink.com 1.10,2013-02-25 22:23:00,
2013-02-25 17:37:00,41.4,22.0,30.17,ESE,102,0.0,3.0,46,0.00,,,0.00,weatherlink.com 1.10,2013-02-25 22:37:00,
2013-02-25 17:52:00,40.8,21.0,30.17,SE,135,0.0,4.0,46,0.00,,,0.00,weatherlink.com 1.10,2013-02-25 22:52:00,
2013-02-25 18:07:00,40.2,21.0,30.17,SE,135,1.0,2.0,47,0.00,,,0.00,weatherlink.com 1.10,2013-02-25 23:07:00,
2013-02-25 18:22:00,39.2,22.0,30.18,SE,135,0.0,0.0,50,0.00,,,0.00,weatherlink.com 1.10,2013-02-25 23:22:00,
2013-02-25 18:37:00,38.1,22.0,30.18,SE,135,0.0,0.0,52,0.00,,,0.00,weatherlink.com 1.10,2013-02-25 23:37:00,
2013-02-25 18:52:00,37.4,22.0,30.19,SE,135,0.0,0.0,54,0.00,,,0.00,weatherlink.com 1.10,2013-02-25 23:52:00,
2013-02-25 19:07:00,37.1,22.0,30.20,SE,135,0.0,0.0,55,0.00,,,0.00,weatherlink.com 1.10,2013-02-26 00:07:00,
2013-02-25 19:22:00,36.4,21.0,30.20,SE,135,0.0,0.0,55,0.00,,,0.00,weatherlink.com 1.10,2013-02-26 00:22:00,
2013-02-25 19:37:00,35.3,23.0,30.20,SE,135,0.0,1.0,60,0.00,,,0.00,weatherlink.com 1.10,2013-02-26 00:37:00,
2013-02-25 19:52:00,34.1,22.0,30.20,SE,135,0.0,1.0,61,0.00,,,0.00,weatherlink.com 1.10,2013-02-26 00:52:00,
2013-02-25 20:07:00,33.2,22.0,30.20,SE,135,0.0,1.0,63,0.00,,,0.00,weatherlink.com 1.10,2013-02-26 01:07:00,
2013-02-25 20:22:00,33.9,21.0,30.21,SE,135,0.0,2.0,59,0.00,,,0.00,weatherlink.com 1.10,2013-02-26 01:22:00,
2013-02-25 20:37:00,33.5,21.0,30.20,SE,135,0.0,0.0,61,0.00,,,0.00,weatherlink.com 1.10,2013-02-26 01:37:00,
2013-02-25 20:51:00,32.5,21.0,30.20,SE,135,0.0,0.0,63,0.00,,,0.00,weatherlink.com 1.10,2013-02-26 01:51:00,
2013-02-25 21:06:00,31.4,21.0,30.19,SE,135,1.0,2.0,66,0.00,,,0.00,weatherlink.com 1.10,2013-02-26 02:06:00,
2013-02-25 21:21:00,30.4,21.0,30.20,SE,135,0.0,1.0,69,0.00,,,0.00,weatherlink.com 1.10,2013-02-26 02:21:00,
2013-02-25 21:36:00,30.6,21.0,30.20,SE,135,0.0,2.0,68,0.00,,,0.00,weatherlink.com 1.10,2013-02-26 02:36:00,
2013-02-25 21:51:00,30.7,21.0,30.20,SE,135,0.0,0.0,67,0.00,,,0.00,weatherlink.com 1.10,2013-02-26 02:51:00,
2013-02-25 22:06:00,30.7,21.0,30.20,SE,135,0.0,1.0,67,0.00,,,0.00,weatherlink.com 1.10,2013-02-26 03:06:00,
2013-02-25 22:21:00,28.8,21.0,30.19,SE,135,0.0,1.0,72,0.00,,,0.00,weatherlink.com 1.10,2013-02-26 03:21:00,
2013-02-25 22:36:00,29.0,21.0,30.19,SE,135,1.0,1.0,72,0.00,,,0.00,weatherlink.com 1.10,2013-02-26 03:36:00,
2013-02-25 22:51:00,28.7,21.0,30.19,SE,135,1.0,2.0,74,0.00,,,0.00,weatherlink.com 1.10,2013-02-26 03:51:00,
2013-02-25 23:06:00,28.6,22.0,30.19,SE,135,0.0,0.0,75,0.00,,,0.00,weatherlink.com 1.10,2013-02-26 04:06:00,
2013-02-25 23:21:00,28.7,21.0,30.20,SE,135,0.0,1.0,72,0.00,,,0.00,weatherlink.com 1.10,2013-02-26 04:21:00,
2013-02-25 23:36:00,28.5,21.0,30.20,SE,135,0.0,0.0,73,0.00,,,0.00,weatherlink.com 1.10,2013-02-26 04:36:00,
2013-02-25 23:51:00,28.7,21.0,30.19,SE,135,0.0,0.0,72,0.00,,,0.00,weatherlink.com 1.10,2013-02-26 04:51:00,